National Weather Service Raw Text Product

Displaying AFOS PIL: RWRIA Received: 2018-01-12 08:00 UTC


048 
ASUS43 KDMX 120806
RWRIA 

WEATHER ROUNDUP FOR IOWA
NATIONAL WEATHER SERVICE DES MOINES IA
200 AM CST FRI JAN 12 2018

NOTE: "FAIR" INDICATES FEW OR NO CLOUDS BELOW 12,000 FEET WITH NO
SIGNIFICANT WEATHER AND/OR OBSTRUCTIONS TO VISIBILITY.

* - THESE STATIONS ARE NOT NWS STATIONS...THUS NOT UNDER NWS
QUALITY CONTROL.  THEY ALSO DO NOT REPORT WEATHER SUCH 
AS PRECIPITATION OR FOG.  

IAZ001>003-012>014-020>022-031>034-043>046-120900-
   NORTHWEST IOWA
  
CITY           SKY/WX    TMP DP  RH WIND       PRES   REMARKS
CARROLL *      CLOUDY     0  -9  65 N18       30.28R WCI -22          
DENISON *      CLOUDY     1  -8  66 N14       30.31F WCI -17          
ORANGE CITY *  CLOUDY    -2  -9  71 N14       30.30F WCI -21          
SHELDON *      CLOUDY    -6 -11  77 N17       30.30F WCI -28          
SIOUX CITY     CLOUDY     0  -8  69 NW14      30.36F WCI -19          
SPENCER        CLOUDY    -4 -13  65 N15       30.31R WCI -25          
STORM LAKE *   CLOUDY    -2 -11  65 N16G23    30.27S WCI -23          
$$
 
IAZ055>058-069>071-079>083-090>094-120900-
   SOUTHWEST IOWA
  
CITY           SKY/WX    TMP DP  RH WIND       PRES   REMARKS
AUDUBON *      CLOUDY     1  -6  71 N14G21    30.27R WCI -17          
CLARINDA *     CLOUDY     7  -2  66 N18       30.31  WCI -12          
COUNCIL BLFS * CLOUDY     3  -2  78 N13       30.30R WCI -14          
CRESTON *      CLOUDY     3  -4  72 N17       30.24R WCI -17          
HARLAN  *      CLOUDY     1  -6  71 N16       30.32F WCI -18          
LAMONI         CLOUDY     5  -4  66 N15G24    30.21R WCI -13          
RED OAK *      CLOUDY     5  -4  66 N12G17    30.31R WCI -11          
SHENANDOAH *   CLOUDY     5  -2  72 N13G21    30.33R WCI -12          
$$
 
IAZ047>049-059>061-072>074-084-120900-
   CENTRAL IOWA
  
CITY           SKY/WX    TMP DP  RH WIND       PRES   REMARKS
AMES           CLOUDY     0  -7  72 N24G31    30.27R WCI -24          
ANKENY *       CLOUDY     1  -6  71 NW21      30.27R WCI -20          
BOONE *        CLOUDY     0  -8  71 N20G26    30.24R WCI -22          
CHARITON *     CLOUDY     3  -2  78 NW18      30.22R WCI -17          
DES MOINES     CLOUDY     3  -5  69 NW17      30.26R WCI -17          
KNOXVILLE *    CLOUDY     3  -6  66 NW14G21   30.22R WCI -15          
MARSHALLTOWN   CLOUDY     0  -6  76 NW18      30.22R WCI -21          
NEWTON *       CLOUDY     1  -6  71 NW21G26   30.23R WCI -20          
PERRY *          N/A      1  -8  67 NW20G28   30.28R WCI -21          
$$
 
IAZ004>006-015-016-023>025-035-036-120900-
   NORTH CENTRAL IOWA
  
CITY           SKY/WX    TMP DP  RH WIND       PRES   REMARKS
ALGONA *       CLOUDY    -4 N/A N/A N18G25    30.26R WCI -26          
CLARION *      CLOUDY    -4  -9  77 N20G30    30.26R WCI -27          
ESTHERVILLE    CLOUDY    -7 -13  75 NW21      30.29R WCI -32          
FORT DODGE *   CLOUDY    -3 -11  68 NW12G23   30.28R WCI -21          
MASON CITY     CLOUDY    -5 -12  72 N24G31    30.23R WCI -31          
WEBSTER CITY * CLOUDY    -2 -11  65 NW21      30.25R WCI -25          
IOWA FALLS *     N/A     -1  -7  76 NW18      30.23R WCI -23          
$$

IAZ007>011-017>019-026>030-037>042-050>054-066-120900-
   NORTHEAST IOWA
  
CITY           SKY/WX    TMP DP  RH WIND       PRES   REMARKS
CEDAR RAPIDS     N/A      7   0  73 NW23G29   30.14R WCI -14          
CHARLES CITY * CLOUDY     0  -6  78 NW20G28   30.20R WCI -22          
CLINTON *      CLOUDY    13   8  81 NW18      30.09R WCI  -4          
DUBUQUE        MOCLDY     9   2  73 N16       30.08R WCI  -8          
MONTICELLO *   CLOUDY     9   1  72 N20G29    30.12R WCI -11          
OELWEIN *      MOCLDY     5   1  85 NW15G26   30.16R WCI -13          
WATERLOO       MOCLDY     1  -6  72 NW21      30.19R WCI -21          
$$
 
IAZ064-065-067-068-078-120900-
   EAST CENTRAL IOWA
  
CITY           SKY/WX    TMP DP  RH WIND       PRES   REMARKS
DAVENPORT      MOCLDY    12   4  70 NW21G29   30.11R WCI  -7          
IOWA CITY      MIX PCPN   9   2  73 NW14G25   30.17R WCI  -7          
MUSCATINE *    CLOUDY    12   5  73 NW15      30.16R WCI  -4          
$$
 
IAZ062-063-075>077-085>089-095>099-120900-
   SOUTHEAST IOWA
  
CITY           SKY/WX    TMP DP  RH WIND       PRES   REMARKS
BURLINGTON     CLOUDY    10   3  73 NW22G31   30.12R WCI -10          
FAIRFIELD *    CLOUDY     7  -2  66 NW23G30   30.16R WCI -14          
FORT MADISON * CLOUDY     9   5  85 NW18      30.13S WCI -10          
KEOKUK *       CLOUDY    10   3  72 NW17G26   30.13F WCI  -7          
OSKALOOSA *      N/A      4  -1  78 NW21      30.21R WCI -17          
OTTUMWA        CLOUDY     5  -2  72 NW21      30.20R WCI -16          
WASHINGTON *   CLOUDY     7   3  85 NW20G31   30.17R WCI -13          
$$

ABBREVIATIONS USED IN REMARKS
   TC - TEMPERATURES IN CELSIUS
  WCI - WIND CHILL INDEX
   HX - HEAT INDEX
  VSB - VISIBILITY  
$$

  

237 
ASUS43 KDMX 120801
RWRIA 

WEATHER ROUNDUP FOR IOWA
NATIONAL WEATHER SERVICE DES MOINES IA
200 AM CST FRI JAN 12 2018

NOTE: "FAIR" INDICATES FEW OR NO CLOUDS BELOW 12,000 FEET WITH NO
SIGNIFICANT WEATHER AND/OR OBSTRUCTIONS TO VISIBILITY.

* - THESE STATIONS ARE NOT NWS STATIONS...THUS NOT UNDER NWS
QUALITY CONTROL.  THEY ALSO DO NOT REPORT WEATHER SUCH 
AS PRECIPITATION OR FOG.  

IAZ001>003-012>014-020>022-031>034-043>046-120900-
   NORTHWEST IOWA
  
CITY           SKY/WX    TMP DP  RH WIND       PRES   REMARKS
CARROLL *      CLOUDY     0  -9  65 N18       30.28R WCI -22          
DENISON *      CLOUDY     1  -8  66 N14       30.31F WCI -17          
ORANGE CITY *  CLOUDY    -2  -9  71 N14       30.30F WCI -21          
SHELDON *      CLOUDY    -6 -11  77 N17       30.30F WCI -28          
SIOUX CITY     CLOUDY     0  -8  69 NW14      30.36F WCI -19          
SPENCER        CLOUDY    -4 -13  65 N15       30.31R WCI -25          
STORM LAKE *   CLOUDY    -2 -11  65 N16G23    30.27S WCI -23          
$$
 
IAZ055>058-069>071-079>083-090>094-120900-
   SOUTHWEST IOWA
  
CITY           SKY/WX    TMP DP  RH WIND       PRES   REMARKS
AUDUBON *      CLOUDY     1  -6  71 N14G21    30.27R WCI -17          
CLARINDA *     CLOUDY     7  -2  66 N18       30.31  WCI -12          
COUNCIL BLFS * CLOUDY     3  -2  78 N13       30.30R WCI -14          
CRESTON *      CLOUDY     3  -4  72 N17       30.24R WCI -17          
HARLAN  *      CLOUDY     1  -6  71 N16       30.32F WCI -18          
LAMONI         CLOUDY     5  -4  66 N15G24    30.21R WCI -13          
RED OAK *      CLOUDY     5  -4  66 N12G17    30.31R WCI -11          
SHENANDOAH *   CLOUDY     5  -2  72 N13G21    30.33R WCI -12          
$$
 
IAZ047>049-059>061-072>074-084-120900-
   CENTRAL IOWA
  
CITY           SKY/WX    TMP DP  RH WIND       PRES   REMARKS
AMES           CLOUDY     0  -7  72 N24G31    30.27R WCI -24          
ANKENY *       CLOUDY     1  -6  71 NW21      30.27R WCI -20          
BOONE *        CLOUDY     0  -8  71 N20G26    30.24R WCI -22          
CHARITON *     CLOUDY     3  -2  78 NW18      30.22R WCI -17          
DES MOINES     CLOUDY     3  -5  69 NW17      30.26R WCI -17          
KNOXVILLE *    CLOUDY     3  -6  66 NW14G21   30.22R WCI -15          
MARSHALLTOWN   CLOUDY     0  -6  76 NW18      30.22R WCI -21          
NEWTON *       CLOUDY     1  -6  71 NW21G26   30.23R WCI -20          
PERRY *          N/A      1  -8  67 NW20G28   30.28R WCI -21          
$$
 
IAZ004>006-015-016-023>025-035-036-120900-
   NORTH CENTRAL IOWA
  
CITY           SKY/WX    TMP DP  RH WIND       PRES   REMARKS
ALGONA *       CLOUDY    -4 N/A N/A N18G25    30.26R WCI -26          
CLARION *      CLOUDY    -4  -9  77 N20G30    30.26R WCI -27          
ESTHERVILLE    CLOUDY    -7 -13  75 NW21      30.29R WCI -32          
FORT DODGE *   CLOUDY    -3 -11  68 NW12G23   30.28R WCI -21          
MASON CITY     CLOUDY    -5 -12  72 N24G31    30.23R WCI -31          
WEBSTER CITY * CLOUDY    -2 -11  65 NW21      30.25R WCI -25          
IOWA FALLS *     N/A     -1  -7  75 NW21G29   30.22R WCI -24          
$$

IAZ007>011-017>019-026>030-037>042-050>054-066-120900-
   NORTHEAST IOWA
  
CITY           SKY/WX    TMP DP  RH WIND       PRES   REMARKS
CEDAR RAPIDS     N/A      7   0  73 NW23G29   30.14R WCI -14          
CHARLES CITY * CLOUDY     0  -6  78 NW20G28   30.20R WCI -22          
CLINTON *      CLOUDY    13   8  81 NW18      30.09R WCI  -4          
DUBUQUE        MOCLDY     9   2  73 N16       30.08R WCI  -8          
MONTICELLO *   CLOUDY     9   1  72 N20G29    30.12R WCI -11          
OELWEIN *      MOCLDY     5   1  85 NW15G26   30.16R WCI -13          
WATERLOO       MOCLDY     1  -6  72 NW21      30.19R WCI -21          
$$
 
IAZ064-065-067-068-078-120900-
   EAST CENTRAL IOWA
  
CITY           SKY/WX    TMP DP  RH WIND       PRES   REMARKS
DAVENPORT      MOCLDY    12   4  70 NW21G29   30.11R WCI  -7          
IOWA CITY      MIX PCPN   9   2  73 NW14G25   30.17R WCI  -7          
MUSCATINE *    CLOUDY    12   5  73 NW15      30.16R WCI  -4          
$$
 
IAZ062-063-075>077-085>089-095>099-120900-
   SOUTHEAST IOWA
  
CITY           SKY/WX    TMP DP  RH WIND       PRES   REMARKS
BURLINGTON     CLOUDY    10   3  73 NW22G31   30.12R WCI -10          
FAIRFIELD *    CLOUDY     7  -2  66 NW23G30   30.16R WCI -14          
FORT MADISON * CLOUDY     9   5  85 NW18      30.13S WCI -10          
KEOKUK *       CLOUDY    10   3  72 NW17G26   30.13F WCI  -7          
OSKALOOSA *      N/A      4  -1  78 NW21      30.21R WCI -17          
OTTUMWA        CLOUDY     5  -2  72 NW21      30.20R WCI -16          
WASHINGTON *   CLOUDY     7   3  85 NW20G31   30.17R WCI -13          
$$

ABBREVIATIONS USED IN REMARKS
   TC - TEMPERATURES IN CELSIUS
  WCI - WIND CHILL INDEX
   HX - HEAT INDEX
  VSB - VISIBILITY  
$$